Location: Breezy Point Observatory
(38.9725°N, 81.7133°W)
Time: 08:00:49
(UTC-05:00)

Hubble Space Telescope - Visible Passes

Search period start: 17 January 2017 00:00
Search period end: 27 January 2017 00:00
Orbit: 538 x 542 km, 28.5° (Epoch: 17 January)

Date Brightness Start Highest point End Pass type
(mag) Time Alt. Az. Time Alt. Az. Time Alt. Az.
17 Jan 3.3 18:46:15 10° SW 18:48:38 15° SSW 18:51:01 10° SSE visible
18 Jan 3.4 18:36:34 10° SW 18:38:35 13° SSW 18:40:35 10° SSE visible
19 Jan 3.6 18:27:07 10° SW 18:28:31 11° SSW 18:29:55 10° S visible
